Location: ?????oe
(44.4874°N, 135.7046°E)
Time: 15:12:38
(UTC+00:00)

Cosmos 1758 Rocket - Pass Details

Date: 13 December 2025
Orbit: 595 x 629 km, 82.5° (Epoch: 19 January)

Event Time Altitude Azimuth Distance (km) Brightness Sun altitude
Rises 20:43:35 0° 192° (SSW) 2,891 7.0 -17.4°
Reaches altitude 10° 20:45:49 10° 195° (SSW) 1,985 6.2 -17.0°
Maximum altitude 20:50:12 72° 279° (W) 654 3.4 -16.3°
Drops below altitude 10° 20:54:35 10° 5° (N) 1,981 6.0 -15.5°
Sets 20:56:49 0° 7° (N) 2,885 6.9 -15.1°
